| time (UTC) | temp C | wind direction | speed KPH | gust KPH | rain 1hr cm | rain 24hr cm | rain mn cm | humidity % | barometer mb |
| 20260505153344 | 25 | 209 | 4.8 | 16.1 | 0.00 | 0.00 | 0.00 | 45 | 982.1 |
| 20260505152340 | 25 | 228 | 3.2 | 12.9 | 0.00 | 0.00 | 0.00 | 48 | 982.1 |
| 20260505151837 | 25 | 220 | 6.4 | 12.9 | 0.00 | 0.00 | 0.00 | 43 | 982.0 |
| 20260505150829 | 25 | 251 | 3.2 | 14.5 | 0.00 | 0.00 | 0.00 | 46 | 981.9 |
| 20260505150331 | 25 | 210 | 4.8 | 14.5 | 0.00 | 0.00 | 0.00 | 46 | 982.0 |
| 20260505140305 | 24 | 178 | 1.6 | 4.8 | 0.00 | 0.00 | 0.00 | 49 | 982.1 |
| 20260505130302 | 20 | 231 | 3.2 | 9.7 | 0.00 | 0.00 | 0.00 | 53 | 982.6 |
| 20260505124804 | 20 | 184 | 3.2 | 11.3 | 0.00 | 0.00 | 0.00 | 53 | 982.7 |
| 20260505124301 | 19 | 188 | 3.2 | 8.0 | 0.00 | 0.00 | 0.00 | 53 | 982.7 |
| 20260505123802 | 19 | 232 | 1.6 | 11.3 | 0.00 | 0.00 | 0.00 | 53 | 982.6 |
| 20260505123302 | 19 | 151 | 3.2 | 11.3 | 0.00 | 0.00 | 0.00 | 53 | 982.6 |
| 20260505122802 | 18 | 238 | 1.6 | 9.7 | 0.00 | 0.00 | 0.00 | 53 | 982.6 |
| 20260505121800 | 18 | 251 | 3.2 | 9.7 | 0.00 | 0.00 | 0.00 | 53 | 982.7 |
| 20260505121301 | 17 | 182 | 3.2 | 6.4 | 0.00 | 0.00 | 0.00 | 52 | 982.6 |
| 20260505120802 | 17 | 228 | 1.6 | 4.8 | 0.00 | 0.00 | 0.00 | 49 | 982.6 |
| 20260505120301 | 17 | 241 | 0.0 | 6.4 | 0.00 | 0.00 | 0.00 | 48 | 982.5 |
| 20260505115803 | 16 | 241 | 1.6 | 6.4 | 0.00 | 0.00 | 0.00 | 49 | 982.4 |
| 20260505115301 | 16 | 233 | 3.2 | 6.4 | 0.00 | 0.00 | 0.00 | 47 | 982.5 |
| 20260505114300 | 15 | 244 | 1.6 | 11.3 | 0.00 | 0.00 | 0.00 | 44 | 982.4 |
| 20260505113802 | 15 | 234 | 1.6 | 6.4 | 0.00 | 0.00 | 0.00 | 44 | 982.3 |
| 20260505113302 | 15 | 212 | 3.2 | 11.3 | 0.00 | 0.00 | 0.00 | 44 | 982.3 |
| 20260505112803 | 15 | 171 | 3.2 | 11.3 | 0.00 | 0.00 | 0.00 | 43 | 982.3 |
| 20260505111800 | 15 | 223 | 1.6 | 9.7 | 0.00 | 0.00 | 0.00 | 41 | 982.2 |
| 20260505111258 | 14 | 0 | 3.2 | 9.7 | 0.00 | 0.00 | 0.00 | 40 | 982.1 |
| 20260505110257 | 14 | 0 | 1.6 | 8.0 | 0.00 | 0.00 | 0.00 | 36 | 982.0 |
| 20260505101231 | 14 | 173 | 1.6 | 8.0 | 0.00 | 0.00 | 0.00 | 38 | 981.4 |
| 20260505100730 | 14 | 149 | 1.6 | 4.8 | 0.00 | 0.00 | 0.00 | 39 | 981.4 |
| 20260505100229 | 14 | 134 | 0.0 | 4.8 | 0.00 | 0.00 | 0.00 | 40 | 981.5 |
| 20260505095729 | 14 | 134 | 1.6 | 4.8 | 0.00 | 0.00 | 0.00 | 40 | 981.3 |
| 20260505095228 | 14 | 134 | 1.6 | 4.8 | 0.00 | 0.00 | 0.00 | 41 | 981.3 |
| 20260505094229 | 15 | 178 | 1.6 | 6.4 | 0.00 | 0.00 | 0.00 | 41 | 981.3 |
| 20260505093729 | 15 | 182 | 3.2 | 6.4 | 0.00 | 0.00 | 0.00 | 41 | 981.2 |
| 20260505093234 | 15 | 185 | 3.2 | 6.4 | 0.00 | 0.00 | 0.00 | 41 | 981.2 |
| 20260505092228 | 15 | 243 | 3.2 | 12.9 | 0.00 | 0.00 | 0.00 | 41 | 981.3 |
| 20260505091731 | 15 | 169 | 3.2 | 14.5 | 0.00 | 0.00 | 0.00 | 41 | 981.3 |
| 20260505091231 | 15 | 182 | 3.2 | 14.5 | 0.00 | 0.00 | 0.00 | 41 | 981.2 |
| 20260505090732 | 15 | 171 | 3.2 | 11.3 | 0.00 | 0.00 | 0.00 | 41 | 981.1 |
| 20260505090231 | 15 | 169 | 1.6 | 6.4 | 0.00 | 0.00 | 0.00 | 41 | 981.0 |
| 20260505085731 | 15 | 198 | 1.6 | 8.0 | 0.00 | 0.00 | 0.00 | 41 | 981.0 |
| 20260505085231 | 15 | 131 | 3.2 | 8.0 | 0.00 | 0.00 | 0.00 | 41 | 981.0 |
| 20260505084232 | 15 | 183 | 4.8 | 11.3 | 0.00 | 0.00 | 0.00 | 40 | 981.1 |
| 20260505083730 | 15 | 136 | 3.2 | 11.3 | 0.00 | 0.00 | 0.00 | 41 | 981.1 |
| 20260505082729 | 15 | 176 | 1.6 | 4.8 | 0.00 | 0.00 | 0.00 | 41 | 981.2 |
| 20260505082228 | 15 | 225 | 1.6 | 6.4 | 0.00 | 0.00 | 0.00 | 42 | 981.1 |
| 20260505081730 | 15 | 190 | 3.2 | 6.4 | 0.00 | 0.00 | 0.00 | 43 | 981.1 |
| 20260505081230 | 15 | 161 | 1.6 | 6.4 | 0.00 | 0.00 | 0.00 | 43 | 981.1 |
| 20260505080729 | 15 | 144 | 1.6 | 8.0 | 0.00 | 0.00 | 0.00 | 43 | 981.0 |
| 20260505075729 | 15 | 167 | 3.2 | 8.0 | 0.00 | 0.00 | 0.00 | 44 | 981.0 |
| 20260505075229 | 15 | 180 | 1.6 | 6.4 | 0.00 | 0.00 | 0.00 | 44 | 981.0 |
| 20260505074230 | 15 | 183 | 3.2 | 6.4 | 0.00 | 0.00 | 0.00 | 44 | 980.8 |
| 20260505073730 | 15 | 166 | 3.2 | 4.8 | 0.00 | 0.00 | 0.00 | 43 | 980.8 |
| 20260505073229 | 15 | 219 | 3.2 | 4.8 | 0.00 | 0.00 | 0.00 | 43 | 980.8 |
| 20260505072729 | 15 | 180 | 1.6 | 8.0 | 0.00 | 0.00 | 0.00 | 43 | 980.7 |
| 20260505072230 | 15 | 236 | 3.2 | 8.0 | 0.00 | 0.00 | 0.00 | 43 | 980.7 |
| 20260505071725 | 15 | 190 | 1.6 | 6.4 | 0.00 | 0.00 | 0.00 | 42 | 980.7 |
| 20260505070709 | 15 | 186 | 1.6 | 4.8 | 0.00 | 0.00 | 0.00 | 42 | 980.8 |
| 20260505070209 | 15 | 182 | 1.6 | 6.4 | 0.00 | 0.00 | 0.00 | 42 | 980.8 |
| 20260505065711 | 15 | 194 | 1.6 | 6.4 | 0.00 | 0.00 | 0.00 | 42 | 980.7 |
| 20260505064701 | 15 | 186 | 1.6 | 4.8 | 0.00 | 0.00 | 0.00 | 43 | 980.8 |
| 20260505064201 | 15 | 188 | 1.6 | 4.8 | 0.00 | 0.00 | 0.00 | 43 | 980.8 |
| 20260505063203 | 15 | 173 | 1.6 | 8.0 | 0.00 | 0.00 | 0.00 | 44 | 980.9 |
| 20260505062701 | 15 | 164 | 3.2 | 6.4 | 0.00 | 0.00 | 0.00 | 45 | 981.0 |
| 20260505062200 | 15 | 165 | 1.6 | 8.0 | 0.00 | 0.00 | 0.00 | 46 | 981.0 |
| 20260505061702 | 15 | 165 | 1.6 | 8.0 | 0.00 | 0.00 | 0.00 | 47 | 980.9 |
| 20260505060701 | 15 | 173 | 0.0 | 3.2 | 0.00 | 0.00 | 0.00 | 48 | 981.0 |
| 20260505055703 | 16 | 171 | 0.0 | 3.2 | 0.00 | 0.00 | 0.00 | 49 | 980.9 |
| 20260505055201 | 16 | 171 | 0.0 | 4.8 | 0.00 | 0.00 | 0.00 | 50 | 981.0 |
| 20260505054205 | 16 | 158 | 0.0 | 8.0 | 0.00 | 0.00 | 0.00 | 51 | 980.8 |
| 20260505053702 | 16 | 177 | 1.6 | 8.0 | 0.00 | 0.00 | 0.00 | 51 | 980.9 |
| 20260505052702 | 16 | 227 | 1.6 | 8.0 | 0.00 | 0.00 | 0.00 | 52 | 981.0 |
| 20260505052200 | 16 | 209 | 3.2 | 8.0 | 0.00 | 0.00 | 0.00 | 52 | 981.1 |
| 20260505051701 | 16 | 171 | 3.2 | 8.0 | 0.00 | 0.00 | 0.00 | 52 | 981.1 |
| 20260505051155 | 16 | 184 | 1.6 | 9.7 | 0.00 | 0.00 | 0.00 | 53 | 981.1 |
| 20260505050653 | 16 | 182 | 1.6 | 9.7 | 0.00 | 0.00 | 0.00 | 53 | 981.1 |
| 20260505050157 | 16 | 214 | 0.0 | 9.7 | 0.00 | 0.00 | 0.00 | 54 | 981.0 |
| 20260505041630 | 17 | 198 | 1.6 | 4.8 | 0.00 | 0.00 | 0.00 | 55 | 981.1 |
| 20260505041129 | 17 | 182 | 0.0 | 6.4 | 0.00 | 0.00 | 0.00 | 55 | 980.8 |
| 20260505040629 | 17 | 190 | 1.6 | 6.4 | 0.00 | 0.00 | 0.00 | 55 | 980.8 |
| 20260505040129 | 17 | 184 | 3.2 | 9.7 | 0.00 | 0.00 | 0.00 | 55 | 980.9 |
| 20260505035629 | 17 | 194 | 3.2 | 9.7 | 0.00 | 0.00 | 0.00 | 55 | 980.8 |
| 20260505035129 | 17 | 172 | 3.2 | 8.0 | 0.00 | 0.00 | 0.00 | 55 | 980.9 |
| 20260505034629 | 17 | 178 | 1.6 | 12.9 | 0.00 | 0.00 | 0.00 | 55 | 980.9 |
| 20260505034129 | 17 | 194 | 3.2 | 12.9 | 0.00 | 0.00 | 0.00 | 55 | 980.9 |
| 20260505033628 | 17 | 206 | 1.6 | 9.7 | 0.00 | 0.00 | 0.00 | 55 | 980.9 |
| 20260505033131 | 17 | 180 | 1.6 | 9.7 | 0.00 | 0.00 | 0.00 | 55 | 981.0 |
| 20260505032134 | 17 | 217 | 3.2 | 11.3 | 0.00 | 0.00 | 0.00 | 55 | 980.9 |
| 20260505031626 | 17 | 173 | 3.2 | 8.0 | 0.00 | 0.00 | 0.00 | 54 | 980.8 |
| 20260505031126 | 17 | 173 | 1.6 | 8.0 | 0.00 | 0.00 | 0.00 | 54 | 981.0 |
| 20260505025620 | 17 | 157 | 3.2 | 8.0 | 0.00 | 0.00 | 0.00 | 54 | 981.0 |
| 20260505025115 | 17 | 180 | 3.2 | 6.4 | 0.00 | 0.00 | 0.00 | 54 | 981.0 |
| 20260505024617 | 18 | 173 | 3.2 | 9.7 | 0.00 | 0.00 | 0.00 | 54 | 981.0 |
| 20260505023608 | 18 | 212 | 0.0 | 4.8 | 0.00 | 0.00 | 0.00 | 54 | 981.1 |
| 20260505023107 | 18 | 188 | 1.6 | 8.0 | 0.00 | 0.00 | 0.00 | 54 | 981.0 |
| 20260505022602 | 18 | 181 | 3.2 | 8.0 | 0.00 | 0.00 | 0.00 | 54 | 981.1 |
| 20260505022103 | 18 | 180 | 1.6 | 8.0 | 0.00 | 0.00 | 0.00 | 53 | 981.0 |
| 20260505021603 | 18 | 223 | 0.0 | 8.0 | 0.00 | 0.00 | 0.00 | 53 | 980.9 |
| 20260505021102 | 18 | 176 | 1.6 | 6.4 | 0.00 | 0.00 | 0.00 | 53 | 980.9 |
| 20260505020601 | 18 | 183 | 1.6 | 4.8 | 0.00 | 0.00 | 0.00 | 52 | 980.9 |
| 20260505015602 | 18 | 183 | 3.2 | 12.9 | 0.00 | 0.00 | 0.00 | 51 | 980.8 |
| 20260505015102 | 18 | 188 | 1.6 | 8.0 | 0.00 | 0.00 | 0.00 | 52 | 980.7 |
| 20260505014101 | 19 | 154 | 1.6 | 8.0 | 0.00 | 0.00 | 0.00 | 50 | 980.9 |
| 20260505013603 | 19 | 245 | 3.2 | 8.0 | 0.00 | 0.00 | 0.00 | 51 | 980.8 |
| 20260505013101 | 19 | 183 | 3.2 | 9.7 | 0.00 | 0.00 | 0.00 | 50 | 980.7 |
| 20260505012601 | 19 | 169 | 1.6 | 12.9 | 0.00 | 0.00 | 0.00 | 50 | 980.6 |
| 20260505012101 | 19 | 156 | 3.2 | 12.9 | 0.00 | 0.00 | 0.00 | 50 | 980.6 |
| 20260505011601 | 19 | 193 | 4.8 | 9.7 | 0.00 | 0.00 | 0.00 | 49 | 980.4 |
| 20260505011101 | 19 | 186 | 3.2 | 12.9 | 0.00 | 0.00 | 0.00 | 49 | 980.3 |
| 20260505010600 | 19 | 262 | 4.8 | 12.9 | 0.00 | 0.00 | 0.00 | 49 | 980.4 |
| 20260505005603 | 19 | 174 | 3.2 | 8.0 | 0.00 | 0.00 | 0.00 | 48 | 980.2 |
| 20260505005104 | 19 | 190 | 3.2 | 9.7 | 0.00 | 0.00 | 0.00 | 48 | 980.2 |
| 20260505004601 | 20 | 247 | 3.2 | 9.7 | 0.00 | 0.00 | 0.00 | 48 | 980.1 |
| 20260505003603 | 20 | 155 | 3.2 | 9.7 | 0.00 | 0.00 | 0.00 | 47 | 980.1 |
| 20260505003100 | 20 | 197 | 3.2 | 9.7 | 0.00 | 0.00 | 0.00 | 47 | 980.1 |
| 20260505002602 | 20 | 160 | 3.2 | 9.7 | 0.00 | 0.00 | 0.00 | 47 | 980.0 |
| 20260505002100 | 20 | 159 | 1.6 | 9.7 | 0.00 | 0.00 | 0.00 | 46 | 980.2 |
| 20260505001556 | 20 | 171 | 1.6 | 8.0 | 0.00 | 0.00 | 0.00 | 46 | 980.1 |
| 20260505001048 | 20 | 189 | 3.2 | 8.0 | 0.00 | 0.00 | 0.00 | 46 | 980.1 |
| 20260505000546 | 20 | 114 | 3.2 | 8.0 | 0.00 | 0.00 | 0.00 | 45 | 980.0 |
| 20260505000044 | 20 | 202 | 3.2 | 11.3 | 0.00 | 0.00 | 0.00 | 45 | 980.0 |
| 20260504235042 | 20 | 144 | 3.2 | 12.9 | 0.00 | 0.00 | 0.00 | 44 | 980.0 |
| 20260504234537 | 20 | 144 | 3.2 | 9.7 | 0.00 | 0.00 | 0.00 | 44 | 979.9 |
| 20260504234029 | 21 | 237 | 3.2 | 9.7 | 0.00 | 0.00 | 0.00 | 44 | 979.9 |
| 20260504233529 | 21 | 196 | 3.2 | 9.7 | 0.00 | 0.00 | 0.00 | 43 | 979.9 |
| 20260504233033 | 21 | 150 | 1.6 | 11.3 | 0.00 | 0.00 | 0.00 | 43 | 979.9 |
| 20260504232530 | 21 | 264 | 4.8 | 11.3 | 0.00 | 0.00 | 0.00 | 42 | 979.9 |
| 20260504232030 | 21 | 169 | 1.6 | 12.9 | 0.00 | 0.00 | 0.00 | 43 | 979.9 |
| 20260504231533 | 21 | 126 | 1.6 | 12.9 | 0.00 | 0.00 | 0.00 | 43 | 979.9 |
| 20260504231029 | 21 | 168 | 1.6 | 8.0 | 0.00 | 0.00 | 0.00 | 43 | 979.9 |
| 20260504230030 | 22 | 182 | 3.2 | 6.4 | 0.00 | 0.00 | 0.00 | 41 | 980.0 |
| 20260504225032 | 22 | 153 | 1.6 | 17.7 | 0.00 | 0.00 | 0.00 | 42 | 980.1 |
| 20260504224531 | 22 | 96 | 4.8 | 17.7 | 0.00 | 0.00 | 0.00 | 40 | 980.0 |
| 20260504224029 | 22 | 177 | 3.2 | 11.3 | 0.00 | 0.00 | 0.00 | 41 | 979.9 |
| 20260504223529 | 22 | 169 | 1.6 | 11.3 | 0.00 | 0.00 | 0.00 | 41 | 979.9 |
| 20260504223029 | 22 | 173 | 3.2 | 14.5 | 0.00 | 0.00 | 0.00 | 40 | 979.9 |
| 20260504222530 | 22 | 251 | 3.2 | 14.5 | 0.00 | 0.00 | 0.00 | 41 | 979.9 |
| 20260504222029 | 22 | 199 | 6.4 | 14.5 | 0.00 | 0.00 | 0.00 | 39 | 979.9 |
| 20260504220529 | 22 | 222 | 1.6 | 11.3 | 0.00 | 0.00 | 0.00 | 41 | 980.0 |
| 20260504220030 | 22 | 140 | 3.2 | 11.3 | 0.00 | 0.00 | 0.00 | 40 | 980.0 |
| 20260504215529 | 22 | 232 | 3.2 | 14.5 | 0.00 | 0.00 | 0.00 | 40 | 980.0 |
| 20260504215028 | 22 | 225 | 4.8 | 17.7 | 0.00 | 0.00 | 0.00 | 39 | 980.1 |
| 20260504214530 | 22 | 161 | 3.2 | 17.7 | 0.00 | 0.00 | 0.00 | 39 | 980.0 |
| 20260504214026 | 22 | 192 | 1.6 | 20.9 | 0.00 | 0.00 | 0.00 | 40 | 979.9 |
| 20260504213516 | 22 | 132 | 3.2 | 20.9 | 0.00 | 0.00 | 0.00 | 40 | 980.0 |
| 20260504213014 | 22 | 132 | 3.2 | 16.1 | 0.00 | 0.00 | 0.00 | 39 | 980.0 |
| 20260504212512 | 22 | 169 | 4.8 | 16.1 | 0.00 | 0.00 | 0.00 | 40 | 980.1 |
| 20260504212013 | 22 | 143 | 4.8 | 12.9 | 0.00 | 0.00 | 0.00 | 38 | 980.0 |
| 20260504211508 | 22 | 204 | 6.4 | 12.9 | 0.00 | 0.00 | 0.00 | 38 | 980.0 |
| 20260504210004 | 23 | 54 | 3.2 | 14.5 | 0.00 | 0.00 | 0.00 | 41 | 980.0 |
| 20260504205501 | 23 | 329 | 1.6 | 14.5 | 0.00 | 0.00 | 0.00 | 40 | 980.0 |
| 20260504205001 | 22 | 140 | 4.8 | 11.3 | 0.00 | 0.00 | 0.00 | 38 | 980.0 |
| 20260504204001 | 22 | 247 | 4.8 | 14.5 | 0.00 | 0.00 | 0.00 | 39 | 980.0 |
| 20260504203506 | 23 | 171 | 3.2 | 17.7 | 0.00 | 0.00 | 0.00 | 40 | 980.0 |
| 20260504203006 | 23 | 182 | 3.2 | 17.7 | 0.00 | 0.00 | 0.00 | 39 | 980.0 |
| 20260504202502 | 23 | 58 | 4.8 | 11.3 | 0.00 | 0.00 | 0.00 | 40 | 980.1 |
| 20260504202000 | 23 | 236 | 3.2 | 14.5 | 0.00 | 0.00 | 0.00 | 41 | 980.2 |
| 20260504201503 | 23 | 131 | 1.6 | 14.5 | 0.00 | 0.00 | 0.00 | 41 | 980.3 |
| 20260504200459 | 23 | 171 | 0.0 | 11.3 | 0.00 | 0.00 | 0.00 | 43 | 980.5 |
| 20260504195959 | 23 | 306 | 3.2 | 14.5 | 0.00 | 0.00 | 0.00 | 41 | 980.7 |
| 20260504195459 | 23 | 179 | 3.2 | 17.7 | 0.00 | 0.00 | 0.00 | 41 | 980.6 |
| 20260504194952 | 23 | 165 | 8.0 | 17.7 | 0.00 | 0.00 | 0.00 | 39 | 980.7 |
| 20260504194454 | 23 | 247 | 1.6 | 11.3 | 0.00 | 0.00 | 0.00 | 41 | 980.7 |
| 20260504193950 | 23 | 309 | 3.2 | 19.3 | 0.00 | 0.00 | 0.00 | 41 | 980.7 |
| 20260504193450 | 23 | 236 | 4.8 | 19.3 | 0.00 | 0.00 | 0.00 | 39 | 981.0 |
| 20260504192948 | 23 | 177 | 4.8 | 11.3 | 0.00 | 0.00 | 0.00 | 40 | 981.0 |
| 20260504192447 | 23 | 159 | 1.6 | 16.1 | 0.00 | 0.00 | 0.00 | 42 | 981.1 |
| 20260504191947 | 23 | 190 | 6.4 | 16.1 | 0.00 | 0.00 | 0.00 | 40 | 981.3 |
| 20260504191442 | 23 | 161 | 1.6 | 14.5 | 0.00 | 0.00 | 0.00 | 42 | 981.3 |
| 20260504190942 | 23 | 173 | 3.2 | 14.5 | 0.00 | 0.00 | 0.00 | 41 | 981.4 |
| 20260504190440 | 23 | 178 | 1.6 | 11.3 | 0.00 | 0.00 | 0.00 | 42 | 981.4 |
| 20260504185941 | 23 | 187 | 4.8 | 11.3 | 0.00 | 0.00 | 0.00 | 38 | 981.4 |
| 20260504185438 | 22 | 226 | 3.2 | 12.9 | 0.00 | 0.00 | 0.00 | 43 | 981.5 |
| 20260504184934 | 22 | 220 | 3.2 | 12.9 | 0.00 | 0.00 | 0.00 | 41 | 981.6 |
| 20260504183930 | 22 | 184 | 3.2 | 16.1 | 0.00 | 0.00 | 0.00 | 42 | 982.0 |
| 20260504182929 | 22 | 148 | 3.2 | 12.9 | 0.00 | 0.00 | 0.00 | 41 | 981.9 |
| 20260504182430 | 22 | 200 | 3.2 | 16.1 | 0.00 | 0.00 | 0.00 | 40 | 982.0 |
| 20260504181930 | 22 | 246 | 4.8 | 16.1 | 0.00 | 0.00 | 0.00 | 41 | 982.1 |
| 20260504181429 | 22 | 151 | 3.2 | 12.9 | 0.00 | 0.00 | 0.00 | 41 | 982.2 |
| 20260504180930 | 22 | 211 | 3.2 | 12.9 | 0.00 | 0.00 | 0.00 | 42 | 982.3 |
| 20260504180430 | 21 | 188 | 3.2 | 17.7 | 0.00 | 0.00 | 0.00 | 40 | 982.3 |
| 20260504175932 | 21 | 140 | 8.0 | 17.7 | 0.00 | 0.00 | 0.00 | 40 | 982.5 |
| 20260504175429 | 22 | 245 | 6.4 | 16.1 | 0.00 | 0.00 | 0.00 | 41 | 982.4 |
| 20260504174930 | 22 | 177 | 4.8 | 11.3 | 0.00 | 0.00 | 0.00 | 39 | 982.3 |
| 20260504174429 | 22 | 184 | 4.8 | 11.3 | 0.00 | 0.00 | 0.00 | 40 | 982.5 |
| 20260504173930 | 22 | 130 | 3.2 | 8.0 | 0.00 | 0.00 | 0.00 | 43 | 982.5 |
| 20260504173429 | 22 | 204 | 3.2 | 9.7 | 0.00 | 0.00 | 0.00 | 43 | 982.4 |
| 20260504172929 | 22 | 246 | 3.2 | 9.7 | 0.00 | 0.00 | 0.00 | 42 | 982.6 |
| 20260504172431 | 22 | 312 | 3.2 | 9.7 | 0.00 | 0.00 | 0.00 | 41 | 982.6 |
| 20260504170930 | 21 | 204 | 3.2 | 11.3 | 0.00 | 0.00 | 0.00 | 41 | 982.8 |
| 20260504170431 | 21 | 27 | 3.2 | 14.5 | 0.00 | 0.00 | 0.00 | 42 | 982.7 |
| 20260504160430 | 21 | 184 | 6.4 | 11.3 | 0.00 | 0.00 | 0.00 | 42 | 983.4 |